Current Version              Previous Version:    01  02  03  04  05  06  07  08  09  10  11  12  13  14  15  16  17  18  19  20  21  22  23  24  25  26  27  28  29  30  
   31  32  33  34  35  36  37  38  39  40  41  42  43  44  45  46  47  48  49  50  51  52  53  54  55  56  57  58  59  60  

[Printable]
530
ASUS44 KFWD 301615
RWRTX
NORTH TEXAS HOURLY WEATHER ROUNDUP
NATIONAL WEATHER SERVICE FORT WORTH TX
1100 AM CDT WED JUL 30 2014

NOTE: "FAIR" INDICATES FEW OR NO CLOUDS BELOW 12,000 FEET WITH NO
SIGNIFICANT WEATHER AND/OR OBSTRUCTIONS TO VISIBILITY.

TXZ118-119-301700-
DALLAS/FORT WORTH METROPLEX

CITY           SKY/WX    TMP DP  RH WIND       PRES   REMARKS
DFW AIRPORT    CLOUDY    78  73  84 SE13      30.07R
DALLAS LOVE    CLOUDY    76  73  91 SE13      30.07F
FTW MEACHAM    FAIR      80  71  74 SE14      30.05S
DAL-EXECUTIVE  FAIR      77  73  87 SE9       30.07F FOG
FTW-ALLIANCE   CLOUDY    78  72  81 SE12      30.05S
FTW-NAS-JRB    CLOUDY    83  69  62 SE10      30.09S
FTW-SPINKS     MOSUNNY   81  72  74 SE9       30.08S
ARLINGTON      FAIR      78  72  81 E13       30.06F
GRAND PRAIRIE  SUNNY     77  72  83 E13       30.08S
ADDISON        LGT RAIN  68  68 100 S15       30.04  FOG
MESQUITE       RAIN      73  72  94 E7        30.09S
LANCASTER      CLOUDY    75  72  89 E7        30.09F
$$

TXZ091>094-102>105-117-120-121-131>134-301700-
NORTH CENTRAL TEXAS

CITY           SKY/WX    TMP DP  RH WIND       PRES   REMARKS
SHRMAN/DENISON DRIZZLE   73  69  88 CALM      30.11R
GAINESVILLE    RAIN      72  71  97 E6        30.10S
BOWIE          PTSUNNY   72  71  95 SE10      30.07S
BRIDGEPORT     PTSUNNY   75  70  85 SE7       30.08S
DECATUR        FAIR      73  72  96 E9        30.08S
DENTON         CLOUDY    75  72  90 SE8       30.07S
MCKINNEY       LGT RAIN  74  71  91 SE7       30.08S
GREENVILLE     LGT RAIN  73  70  88 CALM      30.11S
ROCKWALL       DRIZZLE   73  71  96 SE7       30.08F
TERRELL        PTSUNNY   77  72  84 SE7       30.10S
WAXAHACHIE     FAIR      75  73  93 E8        30.09S FOG
CLEBURNE       FAIR      84  72  65 SE12      30.07F
GRANBURY       FAIR      83  67  57 SE10      30.06S
$$

TXZ083>090-098>101-113>116-127>130-139>142-154-155-301700-
WESTERN NORTH TEXAS

CITY           SKY/WX    TMP DP  RH WIND       PRES   REMARKS
WICHITA FALLS  LGT RAIN  73  69  87 E8        30.04R
WF-KICKAPOO    FAIR      74  70  85 SE14      30.04S
VERNON         FAIR      73  69  88 SE14      30.02R
ABILENE        FAIR      83  65  54 S13G22    30.04S
ABILENE-DYESS  PTSUNNY   83  66  57 S17G24    30.01F
BRECKENRIDGE   FAIR      89  56  32 S15       30.02F HAZE
GRAHAM         FAIR      83  67  57 E9        30.01F
MINERAL WELLS  FAIR      82  68  62 SE13      30.03S
STEPHENVILLE   FAIR      82  60  46 S10       30.08S
COMANCHE       FAIR      85  53  32 S14G20    30.05S
BROWNWOOD      FAIR      84  57  39 S13       30.05S
COLEMAN        FAIR      86  57  36 SW12      30.05S
BRADY          SUNNY     86  59  39 S12       30.06S
$$

TXZ143>147-156>162-174-175-301700-
CENTRAL TEXAS

CITY           SKY/WX    TMP DP  RH WIND       PRES   REMARKS
WACO           FAIR      82  70  66 S9        30.06S
WACO-TSTC      MOSUNNY   84  72  65 SE8       30.05F
WACO-MCGREGOR  FAIR      82  68  61 S12       30.07S
HILLSBORO      FAIR      83  69  62 SE10      30.07F
CORSICANA      PTSUNNY   82  70  66 E5        30.09S
MEXIA          PTSUNNY   83  73  69 SE6       30.06S
HEARNE         FAIR     N/A N/A N/A S8        30.06S
CAMERON        PTSUNNY   84  73  68 S9        30.06S HX  90
TEMPLE         FAIR      81  68  65 S12       30.06S
KILLEEN        PTSUNNY   82  70  65 S10       30.05F
KILLEEN-SKYLRK FAIR      81  68  65 SE10      30.06S
FORT HOOD      FAIR      82  71  69 SE9       30.06S
GATESVILLE     FAIR      82  64  54 S8        30.07S HAZE
HAMILTON       FAIR      82  60  48 S14       30.07R
LAMPASAS       FAIR      83  65  54 S7        30.05S
$$

TXZ095>097-106>112-122>126-135>138-148>153-164>167-301700-
EAST TEXAS

CITY           SKY/WX    TMP DP  RH WIND       PRES   REMARKS
PARIS          PTSUNNY   73  64  73 S5        30.12S
SULPHUR SPRNGS LGT RAIN  75  68  77 S5        30.13R
CLARKSVILLE    CLOUDY    76  65  70 S6        30.12R
MOUNT PLEASANT FAIR      76  65  68 SE5       30.13S
GILMER         FAIR      79  68  69 SE6       30.13S
MINEOLA        FAIR      77  70  78 SE6       30.12S
TYLER          PTSUNNY   78  68  71 VRB3      30.11R
LONGVIEW       FAIR      80  66  62 S7        30.11R
MARSHALL       CLOUDY    79  66  64 SE5       30.14S
ATHENS         CLOUDY    77  70  78 E6        30.09S
JACKSONVILLE   CLOUDY    78  69  72 SE5       30.13S
HENDERSON      CLOUDY    77  67  70 CALM      30.12S
NACOGDOCHES    FAIR      79  70  73 E6        30.11S
LUFKIN         FAIR      84  69  60 SE8       30.09F
$$

SUPPLEMENTAL OBSERVATIONS (CENTRAL)

CITY           SKY/WX    TMP DP  RH WIND       PRES   REMARKS
CADDO GRASSLND   N/A     73  70  88 S2          N/A
PAT MAYSE LAKE   N/A     73  68  83 SE9         N/A
GREENVILLE       N/A     73  68  83 S5          N/A
CEDAR HILL       N/A     77  73  88 SE2         N/A
PALESTINE        N/A     82  70  65 SE3         N/A
LAKE LIMESTONE   N/A     86  82  89 S7          N/A  HX 105
MCGREGOR         N/A     82  70  65 S13         N/A
TEMPLE           N/A     82  72  69 S13         N/A
$$

SUPPLEMENTAL OBSERVATIONS (WEST)

CITY           SKY/WX    TMP DP  RH WIND       PRES   REMARKS
MILLERS CREEK    N/A     81  68  65 SE13        N/A
POSSUM KINGDOM   N/A     91  55  29 S12         N/A
LBJ GRASSLAND    N/A     73  70  88 E7          N/A
GRANBURY         N/A     82  66  57 SE12        N/A
COMANCHE         N/A     86  57  37 S10         N/A
HAMBY            N/A     82  66  57 S15         N/A
IVIE RESERVOIR   N/A     90  59  35 S14         N/A
COLORADO BEND    N/A     86  61  42 S12G20      N/A
$$

SUPPLEMENTAL OBSERVATIONS (EAST)

CITY           SKY/WX    TMP DP  RH WIND       PRES   REMARKS
CLARKSVILLE      N/A     75  68  78 S6          N/A
TEXARKANA        N/A     75  64  69 SE3         N/A
LINDEN           N/A     79  64  61 S2          N/A
CADDO LAKE       N/A     81  64  57 S3          N/A
GILMER           N/A     79  66  65 SE7         N/A
HENDERSON        N/A     79  66  65 CALM        N/A
LUFKIN           N/A     82  79  89 MISG        N/A  HX  93
S SABINE NF      N/A     84  68  58 S5          N/A
$$

SUPPLEMENTAL OBSERVATIONS ARE A COLLECTION OF AUTOMATED INSTRUMENTS
THAT ARE MAINTAINED BY A VARIETY OF FEDERAL AND STATE AGENCIES.
CERTAIN ELEMENTS...SUCH AS HUMIDITY VALUES AND SUSTAINED WIND
SPEEDS...MAY BE APPROXIMATED.